ORBCOMM-X 1 21576U 91050C 10067.44538091 +.00000060 +00000-0 +33199-4 0 02600 2 21576 098.5048 022.2936 0003448 339.6078 020.4964 14.39992819978572 ORBCOMM FM 1 1 23545U 95017A 10067.69299565 +.00000399 +00000-0 +94073-4 0 04472 2 23545 069.9718 236.4713 0010840 227.9302 132.0907 14.61423339792719 ORBCOMM FM 2 1 23546U 95017B 10067.73594115 +.00000473 +00000-0 +10918-3 0 05061 2 23546 069.9754 238.4697 0011549 214.3109 145.7297 14.61340715792736 ORBCOMM FM 8 1 25112U 97084A 10067.78511172 +.00000489 +00000-0 +22187-3 0 04714 2 25112 045.0170 190.7695 0007270 326.5310 033.5087 14.34380831638247 ORBCOMM FM 10 1 25113U 97084B 10067.68057586 -.00000090 +00000-0 +18175-4 0 01986 2 25113 045.0182 192.0789 0005239 288.9460 071.0809 14.34393053638227 ORBCOMM FM 11 1 25114U 97084C 10067.74116084 +.00000071 +00000-0 +74608-4 0 01311 2 25114 045.0185 191.4218 0005939 296.0230 064.0057 14.34415778638230 ORBCOMM FM 12 1 25115U 97084D 10067.72400433 -.00005420 +00000-0 -18617-2 0 01225 2 25115 045.0181 191.2505 0004761 299.4575 060.5746 14.34365231638239 ORBCOMM FM 9 1 25116U 97084E 10067.73305072 +.00000165 +00000-0 +10774-3 0 02889 2 25116 045.0194 191.5984 0005219 279.8219 080.2059 14.34448407638237 ORBCOMM FM 5 1 25117U 97084F 10065.60845403 -.00004526 00000-0 -15461-2 0 2245 2 25117 045.0187 201.8781 0001833 283.2418 076.8663 14.34373326637922 ORBCOMM FM 6 1 25118U 97084G 10067.68899449 +.00000053 +00000-0 +68311-4 0 01124 2 25118 045.0180 191.9460 0000626 318.3575 041.7191 14.34420883638224 ORBCOMM FM 7 1 25119U 97084H 10067.77627340 +.00000606 +00000-0 +26317-3 0 03859 2 25119 045.0174 191.7369 0003093 293.8699 066.1829 14.34390711638235 ORBCOMM FM 3 1 25158U 98007B 10067.64609556 +.00000122 +00000-0 +10509-3 0 01197 2 25158 107.9665 290.2092 0052011 195.3192 164.6376 14.25530361627200 ORBCOMM FM 4 1 25159U 98007C 10067.65209179 -.00000118 +00000-0 +51159-5 0 01134 2 25159 107.9667 290.0300 0047359 196.9048 163.0507 14.25541559627232 ORBCOMM FM 17 1 25413U 98046A 10067.57124981 +.00000292 +00000-0 +17344-3 0 02597 2 25413 044.9960 109.6549 0003963 245.9223 114.1204 14.27593568604475 ORBCOMM FM 18 1 25414U 98046B 10067.48202785 +.00005185 +00000-0 +21309-2 0 02037 2 25414 044.9947 109.6157 0005970 240.1435 119.8825 14.27873210604463 ORBCOMM FM 19 1 25415U 98046C 10067.49203140 +.00005079 +00000-0 +20888-2 0 02409 2 25415 044.9951 109.7757 0004833 236.4823 123.5563 14.27868270604463 ORBCOMM FM 20 1 25416U 98046D 10067.43206903 +.00005573 +00000-0 +22872-2 0 06828 2 25416 044.9954 110.2327 0003529 256.8796 103.1631 14.27858530604416 ORBCOMM FM 16 1 25417U 98046E 10067.51196748 +.00000206 +00000-0 +13814-3 0 02857 2 25417 044.9987 110.8412 0004712 254.0601 105.9725 14.27837095604466 ORBCOMM FM 15 1 25418U 98046F 10067.59196373 +.00000103 +00000-0 +96815-4 0 03344 2 25418 044.9993 110.6929 0005579 252.4373 107.5869 14.27852882604474 ORBCOMM FM 14 1 25419U 98046G 10067.53198622 -.00000156 +00000-0 -71344-5 0 02977 2 25419 044.9982 110.9077 0004656 239.4198 120.6201 14.27851262604461 ORBCOMM FM 13 1 25420U 98046H 10067.54195109 +.00010517 +00000-0 +42623-2 0 01779 2 25420 045.0008 111.2364 0005540 252.1950 107.8345 14.27872524604491 ORBCOMM FM 21 1 25475U 98053A 10067.71670531 +.00000107 +00000-0 +96613-4 0 02419 2 25475 045.0099 196.4458 0005220 163.8978 196.2036 14.29024364597654 ORBCOMM FM 22 1 25476U 98053B 10067.75226308 +.00001475 +00000-0 +63233-3 0 09218 2 25476 045.0097 196.6714 0003494 188.4717 171.6140 14.29027929597647 ORBCOMM FM 23 1 25477U 98053C 10067.66972393 +.00000415 +00000-0 +21718-3 0 02321 2 25477 045.0098 196.7821 0003789 182.5383 177.5453 14.29021937597803 ORBCOMM FM 24 1 25478U 98053D 10067.72888984 +.00000357 +00000-0 +19440-3 0 08095 2 25478 045.0111 196.7525 0002569 191.8727 168.2042 14.29030482597795 ORBCOMM FM 25 1 25479U 98053E 10067.76310687 -.00000062 +00000-0 +30118-4 0 01060 2 25479 045.0105 195.9523 0004286 207.2542 152.8075 14.29015393597792 ORBCOMM FM 26 1 25480U 98053F 10067.76082068 +.00000170 +00000-0 +12029-3 0 01835 2 25480 045.0086 186.4852 0006600 240.4506 119.5666 14.29318795597892 ORBCOMM FM 27 1 25481U 98053G 10065.53779350 .00000195 00000-0 13092-3 0 7144 2 25481 045.0083 206.0331 0002720 151.3547 208.7457 14.29027820597474 ORBCOMM FM 28 1 25482U 98053H 10067.71857508 +.00000414 +00000-0 +21219-3 0 08278 2 25482 045.0107 166.8651 0005234 233.2105 126.8246 14.30151931598158 ORBCOMM FM 30 1 25980U 99065A 10067.89909176 +.00000283 +00000-0 +16597-3 0 07639 2 25980 045.0350 000.6556 0005343 015.1844 344.9132 14.28904668535145 ORBCOMM FM 31 1 25981U 99065B 10067.81644813 +.00000221 +00000-0 +14130-3 0 08629 2 25981 045.0270 358.5302 0004363 016.2992 343.7986 14.28914173535122 ORBCOMM FM 32 1 25982U 99065C 10065.26820547 -.00000063 00000-0 29660-4 0 7918 2 25982 045.0249 009.4305 0006279 016.3265 343.7794 14.29341862534773 ORBCOMM FM 33 1 25983U 99065D 10067.91321336 +.00000222 +00000-0 +14195-3 0 07670 2 25983 045.0330 000.2608 0004144 004.6682 355.4207 14.28887763535136 ORBCOMM FM 36 1 25984U 99065E 10067.80217270 -.00000213 +00000-0 -29040-4 0 07948 2 25984 045.0415 002.5504 0005498 305.8061 054.2276 14.28906437535120 ORBCOMM FM 35 1 25985U 99065F 10067.78738884 +.00000071 +00000-0 +82694-4 0 08243 2 25985 045.0438 003.4929 0003121 359.5394 000.5469 14.28905532535126 ORBCOMM FM 34 1 25986U 99065G 10067.84301211 +.00000341 +00000-0 +18878-3 0 07758 2 25986 045.0430 002.6894 0005701 350.6875 009.3863 14.28907731535132 ORBCOMM FM 38 1 33060U 08031A 10067.82742492 +.00000023 +00000-0 +36968-4 0 05511 2 33060 048.4445 277.4527 0006893 088.6273 271.5423 14.68791726092238 ORBCOMM FM 41 1 33061U 08031B 10067.71059298 -.00000009 +00000-0 +31479-4 0 05578 2 33061 048.4478 278.2967 0006026 080.2832 279.8732 14.68763106092223 ORBCOMM FM 29 1 33062U 08031C 10067.89001923 -.00000060 +00000-0 +23033-4 0 05383 2 33062 048.4433 278.5358 0007703 085.6357 274.5416 14.68422112092237 ORBCOMM FM 39 1 33063U 08031D 10067.75687535 -.00000039 +00000-0 +26684-4 0 05558 2 33063 048.4434 279.8722 0009740 076.8840 283.3155 14.68227549092202 ORBCOMM FM 37 1 33064U 08031E 10067.71755604 -.00000031 +00000-0 +27966-4 0 05329 2 33064 048.4445 278.9398 0007670 084.6361 275.5414 14.68508671092219 ORBCOMM FM 40 1 33065U 08031F 10067.82398148 -.00000034 +00000-0 +27547-4 0 05191 2 33065 048.4464 279.7277 0008900 084.0560 276.1367 14.68198216092212